• In Germany
  • List of Countries
  • For 7 days
  • Water Temperature
  • Satellite Maps
  • Weather Map
  • Weather Widgets
  • user-avatar
    Login

    Hourly Weather Neiva

    Today, 20 November, Monday

    Time Temperature Precipitation Wind Pressure Humidity
    00:00 +25°C° 0.1 mm 1 mps 719 mmHg 84%
    01:00 +23°C° 0 mm 0 mps 719 mmHg 85%
    02:00 +23°C° 0.3 mm 0 mps 719 mmHg 87%
    03:00 +22°C° 0.3 mm 0 mps 719 mmHg 90%
    04:00 +22°C° 0.3 mm 0 mps 718 mmHg 92%
    05:00 +22°C° 0.2 mm 0 mps 719 mmHg 90%
    06:00 +23°C° 0.2 mm 0 mps 719 mmHg 89%
    07:00 +23°C° 0.2 mm 0 mps 720 mmHg 87%
    08:00 +27°C° 0.2 mm 1 mps 720 mmHg 80%
    09:00 +29°C° 0.2 mm 1 mps 721 mmHg 72%
    10:00 +30°C° 0.2 mm 1 mps 721 mmHg 65%
    11:00 +31°C° 0.5 mm 1 mps 720 mmHg 62%
    12:00 +32°C° 0.5 mm 1 mps 720 mmHg 59%
    13:00 +34°C° 0.5 mm 2 mps 719 mmHg 57%
    14:00 +32°C° 0.5 mm 1 mps 719 mmHg 58%
    15:00 +32°C° 0.5 mm 1 mps 718 mmHg 59%
    16:00 +32°C° 0.5 mm 1 mps 718 mmHg 59%
    17:00 +30°C° 0.1 mm 1 mps 718 mmHg 66%
    18:00 +28°C° 0.1 mm 1 mps 718 mmHg 72%
    19:00 +26°C° 0.1 mm 2 mps 719 mmHg 78%
    20:00 +26°C° 0.1 mm 1 mps 719 mmHg 77%
    21:00 +26°C° 0.1 mm 1 mps 720 mmHg 77%
    22:00 +25°C° 0.1 mm 1 mps 720 mmHg 76%
    23:00 +25°C° 0.1 mm 1 mps 720 mmHg 76%

    Tomorrow, 21 November, Tuesday

    Time Temperature Precipitation Wind Pressure Humidity
    00:00 +25°C° 0.1 mm 1 mps 720 mmHg 75%
    01:00 +25°C° 0.1 mm 1 mps 719 mmHg 75%
    02:00 +25°C° 0.1 mm 1 mps 719 mmHg 75%
    03:00 +24°C° 0.1 mm 1 mps 719 mmHg 76%
    04:00 +24°C° 0.1 mm 1 mps 719 mmHg 76%
    05:00 +25°C° 0 mm 1 mps 719 mmHg 74%
    06:00 +25°C° 0 mm 1 mps 720 mmHg 72%
    07:00 +24°C° 0 mm 0 mps 720 mmHg 70%
    08:00 +28°C° 0 mm 1 mps 720 mmHg 63%
    09:00 +30°C° 0 mm 1 mps 721 mmHg 56%
    10:00 +32°C° 0 mm 1 mps 721 mmHg 48%
    11:00 +34°C° 0.1 mm 2 mps 720 mmHg 46%
    12:00 +35°C° 0.1 mm 2 mps 719 mmHg 44%
    13:00 +36°C° 0.1 mm 2 mps 719 mmHg 41%
    14:00 +36°C° 0 mm 2 mps 718 mmHg 43%
    15:00 +35°C° 0 mm 2 mps 717 mmHg 45%
    16:00 +34°C° 0 mm 1 mps 717 mmHg 47%
    17:00 +32°C° 0.1 mm 1 mps 717 mmHg 54%
    18:00 +29°C° 0.1 mm 1 mps 718 mmHg 62%
    19:00 +27°C° 0.1 mm 1 mps 718 mmHg 69%
    20:00 +27°C° 0.1 mm 1 mps 719 mmHg 70%
    21:00 +26°C° 0.1 mm 1 mps 720 mmHg 70%
    22:00 +26°C° 0.1 mm 1 mps 720 mmHg 71%
    23:00 +25°C° 0 mm 1 mps 720 mmHg 72%

    Day after tomorrow, 22 November, Wednesday

    Time Temperature Precipitation Wind Pressure Humidity
    00:00 +25°C° 0 mm 1 mps 720 mmHg 74%
    01:00 +24°C° 0 mm 1 mps 720 mmHg 75%
    02:00 +24°C° 0 mm 1 mps 719 mmHg 76%
    03:00 +24°C° 0 mm 1 mps 719 mmHg 77%
    04:00 +24°C° 0 mm 1 mps 719 mmHg 77%
    05:00 +24°C° 0 mm 1 mps 719 mmHg 75%
    06:00 +25°C° 0 mm 1 mps 720 mmHg 72%
    07:00 +26°C° 0 mm 1 mps 720 mmHg 70%
    08:00 +28°C° 0 mm 1 mps 721 mmHg 62%
    09:00 +30°C° 0 mm 1 mps 721 mmHg 55%
    10:00 +32°C° 0 mm 2 mps 721 mmHg 47%
    11:00 +34°C° 0 mm 2 mps 720 mmHg 44%
    12:00 +35°C° 0 mm 2 mps 719 mmHg 42%
    13:00 +36°C° 0 mm 2 mps 718 mmHg 40%
    14:00 +35°C° 0 mm 2 mps 718 mmHg 42%
    15:00 +35°C° 0 mm 2 mps 717 mmHg 44%
    16:00 +34°C° 0 mm 2 mps 717 mmHg 46%
    17:00 +31°C° 0 mm 1 mps 717 mmHg 53%
    18:00 +29°C° 0 mm 1 mps 718 mmHg 60%
    19:00 +27°C° 0 mm 1 mps 719 mmHg 67%
    20:00 +26°C° 0 mm 1 mps 719 mmHg 68%
    21:00 +26°C° 0 mm 1 mps 720 mmHg 69%
    22:00 +25°C° 0 mm 1 mps 720 mmHg 69%
    23:00 +25°C° 0 mm 1 mps 720 mmHg 70%

    23 November, Thursday

    Time Temperature Precipitation Wind Pressure Humidity
    00:00 +25°C° 0 mm 1 mps 720 mmHg 70%
    01:00 +24°C° 0 mm 1 mps 719 mmHg 70%
    02:00 +24°C° 0 mm 1 mps 719 mmHg 71%
    03:00 +24°C° 0 mm 1 mps 719 mmHg 71%
    04:00 +24°C° 0 mm 1 mps 719 mmHg 71%
    05:00 +24°C° 0 mm 1 mps 719 mmHg 70%
    06:00 +25°C° 0 mm 1 mps 720 mmHg 69%
    07:00 +25°C° 0 mm 1 mps 720 mmHg 68%
    08:00 +27°C° 0 mm 1 mps 720 mmHg 61%
    09:00 +29°C° 0 mm 1 mps 721 mmHg 55%
    10:00 +31°C° 0 mm 1 mps 721 mmHg 49%
    11:00 +34°C° 0 mm 2 mps 720 mmHg 47%
    12:00 +35°C° 0 mm 2 mps 720 mmHg 44%
    13:00 +36°C° 0 mm 2 mps 719 mmHg 42%
    14:00 +35°C° 0 mm 2 mps 718 mmHg 44%
    15:00 +35°C° 0 mm 2 mps 718 mmHg 46%
    16:00 +33°C° 0 mm 1 mps 717 mmHg 49%
    17:00 +31°C° 0.1 mm 1 mps 718 mmHg 57%
    18:00 +29°C° 0.1 mm 1 mps 718 mmHg 65%
    19:00 +27°C° 0.1 mm 1 mps 719 mmHg 73%
    20:00 +26°C° 0.2 mm 1 mps 719 mmHg 73%
    21:00 +26°C° 0.2 mm 1 mps 720 mmHg 74%
    22:00 +26°C° 0.2 mm 1 mps 720 mmHg 74%
    23:00 +25°C° 0.1 mm 1 mps 720 mmHg 75%

    24 November, Friday

    Time Temperature Precipitation Wind Pressure Humidity
    00:00 +25°C° 0.1 mm 1 mps 720 mmHg 76%
    01:00 +25°C° 0.1 mm 1 mps 719 mmHg 77%
    02:00 +25°C° 0.1 mm 1 mps 719 mmHg 77%
    03:00 +24°C° 0.1 mm 1 mps 719 mmHg 78%
    04:00 +24°C° 0.1 mm 1 mps 719 mmHg 79%
    05:00 +23°C° 0.1 mm 0 mps 719 mmHg 78%
    06:00 +23°C° 0.1 mm 0 mps 720 mmHg 76%
    07:00 +24°C° 0.1 mm 0 mps 721 mmHg 75%
    08:00 +27°C° 0.1 mm 1 mps 721 mmHg 69%
    09:00 +29°C° 0.1 mm 1 mps 721 mmHg 64%
    10:00 +30°C° 0.1 mm 1 mps 721 mmHg 58%
    11:00 +32°C° 0.2 mm 1 mps 720 mmHg 53%
    12:00 +34°C° 0.2 mm 2 mps 720 mmHg 49%
    13:00 +35°C° 0.2 mm 2 mps 719 mmHg 44%
    14:00 +35°C° 0.2 mm 2 mps 718 mmHg 46%
    15:00 +34°C° 0.2 mm 2 mps 718 mmHg 49%
    16:00 +33°C° 0.2 mm 1 mps 717 mmHg 51%
    17:00 +31°C° 0.2 mm 1 mps 718 mmHg 58%
    18:00 +29°C° 0.2 mm 1 mps 719 mmHg 65%
    19:00 +27°C° 0.2 mm 1 mps 719 mmHg 72%
    20:00 +26°C° 0.1 mm 1 mps 720 mmHg 72%
    21:00 +26°C° 0.1 mm 1 mps 720 mmHg 73%
    22:00 +26°C° 0.1 mm 1 mps 721 mmHg 74%
    23:00 +25°C° 0.1 mm 1 mps 720 mmHg 75%

    25 November, Saturday

    Time Temperature Precipitation Wind Pressure Humidity
    00:00 +25°C° 0.1 mm 1 mps 720 mmHg 77%
    01:00 +23°C° 0.1 mm 0 mps 720 mmHg 78%
    02:00 +22°C° 0.1 mm 0 mps 720 mmHg 79%
    03:00 +22°C° 0.1 mm 0 mps 719 mmHg 80%
    04:00 +22°C° 0.1 mm 0 mps 719 mmHg 81%
    05:00 +22°C° 0.1 mm 0 mps 720 mmHg 79%
    06:00 +23°C° 0.1 mm 0 mps 721 mmHg 78%
    07:00 +23°C° 0.1 mm 0 mps 721 mmHg 77%
    08:00 +27°C° 0.1 mm 1 mps 721 mmHg 71%
    09:00 +28°C° 0.1 mm 1 mps 722 mmHg 65%
    10:00 +30°C° 0.1 mm 1 mps 722 mmHg 60%
    11:00 +30°C° 0.3 mm 1 mps 721 mmHg 60%
    12:00 +30°C° 0.3 mm 1 mps 721 mmHg 61%
    13:00 +30°C° 0.3 mm 2 mps 720 mmHg 61%
    14:00 +30°C° 0.3 mm 1 mps 719 mmHg 64%
    15:00 +29°C° 0.3 mm 1 mps 719 mmHg 67%
    16:00 +29°C° 0.3 mm 1 mps 718 mmHg 70%
    17:00 +28°C° 0.1 mm 1 mps 719 mmHg 73%
    18:00 +27°C° 0.1 mm 1 mps 719 mmHg 77%
    19:00 +26°C° 0.1 mm 1 mps 720 mmHg 80%
    20:00 +25°C° 0.1 mm 1 mps 720 mmHg 80%
    21:00 +25°C° 0.1 mm 1 mps 721 mmHg 79%
    22:00 +25°C° 0.1 mm 1 mps 721 mmHg 79%
    23:00 +25°C° 0.1 mm 1 mps 721 mmHg 79%
    Show more